Tampa, FL

6:10 AM EDT on March 27, 2017 (GMT -0400)
Tampa International

Weather History for KTPA - May, 2013

Change the Weather History Date:

Saturday, May 11, 2013

  Actual Average Record
Temperature  
Mean Temperature 81 °F 78 °F  
Max Temperature 88 °F 87 °F 94 °F (2002)
Min Temperature 73 °F 69 °F 50 °F (1969)
Degree Days  
Heating Degree Days 0 0  
Month to date heating degree days 0 0  
Since 1 July heating degree days 400 538  
Cooling Degree Days 16 13  
Month to date cooling degree days 98 126  
Year to date cooling degree days 676 586  
Growing Degree Days 30 (Base 50)    
Moisture  
Dew Point 70 °F    
Average Humidity 74    
Maximum Humidity 93    
Minimum Humidity 55    
Precipitation  
Precipitation 0.00 in 0.05 in 1.40 in (1958)
Month to date precipitation 1.01 0.58  
Year to date precipitation 8.28 10.68  
Sea Level Pressure  
Sea Level Pressure 30.04 in    
Wind  
Wind Speed 7 mph (South)    
Max Wind Speed 18 mph    
Max Gust Speed 21 mph    
Visibility 9 miles    
Events      
T = Trace of Precipitation, MM = Missing Value Source: NWS Daily Summary

Daily Weather History Graph

Daily Weather History Graph

Search for Another Location

Airport or City:

Trip Planner

Search our weather history database for the weather conditions in past years. The results will help you decide how hot, cold, wet, or windy it might be!

Date:

Astronomy

May. 11, 2013 Rise Set
Actual Time 6:42 AM EDT 8:10 PM EDT
Civil Twilight 6:17 AM EDT 8:35 PM EDT
Nautical Twilight 5:47 AM EDT 9:06 PM EDT
Astronomical Twilight 5:15 AM EDT 9:37 PM EDT
Moon 7:52 AM EDT (5/11) 9:46 PM EDT (5/11)
Length of Visible Light 14h 18m
Length of Day
13h 27m
Waxing Crescent, 3% of the Moon is Illuminated
May 11
Waxing Crescent
May 18
First Quarter
May 25
Full
May 31
Last Quarter
Jun 8
New

Hourly Weather History & Observations

Time (EDT) Temp. Heat Index Dew Point Humidity Pressure Visibility Wind Dir Wind Speed Gust Speed Precip Events Conditions
12:53 AM 77.0 °F - 69.1 °F 76% 30.07 in 10.0 mi Calm Calm - N/A   Partly Cloudy
1:51 AM 75.2 °F - 69.8 °F 83% 30.06 in 10.0 mi Calm Calm - N/A   Mostly Cloudy
1:53 AM 77.0 °F - 70.0 °F 79% 30.06 in 10.0 mi Calm Calm - N/A   Mostly Cloudy
2:53 AM 75.9 °F - 69.1 °F 79% 30.06 in 10.0 mi Calm Calm - N/A   Mostly Cloudy
3:10 AM 75.2 °F - 68.0 °F 78% 30.04 in 10.0 mi Calm Calm - N/A   Partly Cloudy
3:53 AM 75.9 °F - 69.1 °F 79% 30.02 in 10.0 mi Calm Calm - N/A   Partly Cloudy
4:42 AM 75.2 °F - 69.8 °F 83% 30.02 in 10.0 mi Calm Calm - N/A   Mostly Cloudy
4:53 AM 75.9 °F - 69.1 °F 79% 30.02 in 10.0 mi Calm Calm - N/A   Mostly Cloudy
5:07 AM 75.2 °F - 69.8 °F 83% 30.03 in 10.0 mi Calm Calm - N/A   Overcast
5:18 AM 75.2 °F - 69.8 °F 83% 30.03 in 10.0 mi Calm Calm - N/A   Overcast
5:25 AM 75.2 °F - 69.8 °F 83% 30.03 in 10.0 mi Calm Calm - N/A   Overcast
5:45 AM 75.2 °F - 71.6 °F 89% 30.03 in 9.0 mi ESE 3.5 mph - N/A   Overcast
5:53 AM 75.9 °F - 72.0 °F 87% 30.03 in 9.0 mi SE 3.5 mph - N/A   Overcast
6:05 AM 75.2 °F - 71.6 °F 89% 30.04 in 8.0 mi Calm Calm - N/A   Overcast
6:14 AM 75.2 °F - 71.6 °F 89% 30.04 in 7.0 mi SSE 3.5 mph - N/A   Overcast
6:30 AM 75.2 °F - 71.6 °F 89% 30.03 in 6.0 mi SE 5.8 mph - N/A   Overcast
6:51 AM 73.4 °F - 71.6 °F 94% 30.04 in 6.0 mi SE 4.6 mph - N/A   Overcast
6:53 AM 73.9 °F - 72.0 °F 93% 30.04 in 6.0 mi SE 4.6 mph - N/A   Overcast
7:22 AM 75.2 °F - 71.6 °F 89% 30.05 in 6.0 mi SE 4.6 mph - N/A   Mostly Cloudy
7:38 AM 75.2 °F - 71.6 °F 89% 30.05 in 6.0 mi SE 5.8 mph - N/A   Mostly Cloudy
7:53 AM 75.0 °F - 72.0 °F 90% 30.05 in 8.0 mi SSE 4.6 mph - N/A   Scattered Clouds
8:53 AM 78.1 °F - 72.0 °F 81% 30.05 in 9.0 mi South 6.9 mph - N/A   Scattered Clouds
9:53 AM 80.1 °F 84.2 °F 73.0 °F 79% 30.06 in 10.0 mi SSW 10.4 mph - N/A   Scattered Clouds
10:53 AM 81.0 °F 85.8 °F 73.0 °F 77% 30.06 in 10.0 mi South 11.5 mph - N/A   Scattered Clouds
11:53 AM 82.9 °F 88.8 °F 73.0 °F 72% 30.06 in 10.0 mi South 11.5 mph - N/A   Mostly Cloudy
12:53 PM 84.9 °F 91.4 °F 73.0 °F 67% 30.05 in 10.0 mi South 10.4 mph - N/A   Scattered Clouds
1:53 PM 86.0 °F 91.5 °F 71.1 °F 61% 30.04 in 10.0 mi SSW 12.7 mph - N/A   Scattered Clouds
2:53 PM 88.0 °F 92.1 °F 69.1 °F 53% 30.03 in 10.0 mi SW 10.4 mph - N/A   Mostly Cloudy
3:53 PM 86.0 °F 91.5 °F 71.1 °F 61% 30.02 in 10.0 mi WSW 10.4 mph - N/A   Overcast
4:53 PM 84.0 °F 89.0 °F 71.1 °F 65% 30.02 in 10.0 mi WSW 12.7 mph - N/A   Mostly Cloudy
5:53 PM 82.0 °F 87.4 °F 73.0 °F 74% 30.02 in 10.0 mi WSW 11.5 mph - N/A   Overcast
6:53 PM 81.0 °F 85.2 °F 72.0 °F 74% 30.02 in 10.0 mi West 10.4 mph - N/A   Mostly Cloudy
7:22 PM 80.6 °F 84.6 °F 71.6 °F 74% 30.02 in 10.0 mi WNW 10.4 mph - N/A   Overcast
7:48 PM 77.0 °F - 66.2 °F 69% 30.04 in 10.0 mi NNW 13.8 mph - N/A   Mostly Cloudy
7:53 PM 75.9 °F - 66.9 °F 74% 30.04 in 10.0 mi NNW 13.8 mph - N/A   Mostly Cloudy
8:53 PM 73.9 °F - 66.9 °F 79% 30.04 in 10.0 mi North 5.8 mph - N/A   Overcast
9:53 PM 73.9 °F - 66.0 °F 76% 30.03 in 10.0 mi East 3.5 mph - N/A   Mostly Cloudy
10:53 PM 75.0 °F - 66.0 °F 73% 30.05 in 10.0 mi SE 3.5 mph - N/A   Scattered Clouds
11:53 PM 75.0 °F - 66.9 °F 76% 30.05 in 10.0 mi Calm Calm - N/A   Clear